Location: Newark
(49.8348°N, 24.0280°E)
Time: 14:39:58
(UTC+00:00)

Explorer 7 - Pass Details

Date: 18 January 2020
Orbit: 485 x 679 km, 50.3° (Epoch: 28 February)

Event Time Altitude Azimuth Distance (km) Brightness Sun altitude
Rises 03:00:17 0° 274° (W) 2,583 - -30.6°
Reaches altitude 10° 03:02:25 10° 276° (W) 1,718 - -30.3°
Maximum altitude 03:06:18 84° 2° (N) 531 - -29.7°
Exits shadow 03:08:12 31° 91° (E) 961 8.6 -29.4°
Drops below altitude 10° 03:10:25 10° 93° (E) 1,813 10.4 -29.0°
Sets 03:12:44 0° 95° (E) 2,741 11.6 -28.6°
